Regional Weather Roundup
Issued by NWS

Home | Current Version | Previous Version | Graphics & Text | Print | Product List | Glossary On
Versions: 1 2 3 4 5 6 7 8 9 10 11 12 13 14 15 16 17 18 19 20 21 22 23 24 25 26 27 28 29 30 31 32 33 34 35 36 37 38 39 40 41 42 43 44 45 46 47 48 49 50
000
ASUS45 KBOU 201310
RWRCO

WEATHER ROUNDUP FOR COLORADO
NATIONAL WEATHER SERVICE DENVER/BOULDER CO
600 AM MST MON NOV 20 2017

NOTE: "FAIR" INDICATES FEW OR NO CLOUDS BELOW 12000 FEET WITH NO
SIGNIFICANT WEATHER AND/OR OBSTRUCTIONS TO VISIBILITY.

COZ001>005-013-030-031-201400-
...NORTHWEST COLORADO...

CITY           SKY/WX    TMP DP  RH WIND       PRES   REMARKS
CRAIG          FAIR      20  14  77 SW5       30.11F WCI  13
HAYDEN         NOT AVBL
MEEKER         FAIR      25  15  66 CALM      30.13S
RABBIT EARS PA FAIR      23   3  42 W10G22    30.14R WCI  12
STEAMBOAT SPGS FAIR      14  11  87 CALM      30.13S
WALDEN         FAIR      30   3  31 S9G18     30.08S WCI  22
$$

COZ006>008-011-201400-
...WEST CENTRAL VALLEYS...

CITY           SKY/WX    TMP DP  RH WIND       PRES   REMARKS
GRAND JUNCTION FAIR      26  18  71 E3        30.19S
MONTROSE       FAIR      25  18  74 S3        30.22S
EAGLE          FAIR      15  11  83 CALM      30.22S
RIFLE          FAIR      21  16  81 CALM      30.22F
DELTA          FAIR      25  15  66 CALM      30.21F
NUCLA          FAIR      23   9  54 CALM      30.23R
$$

COZ017>023-064>068-201400-
...SOUTHWEST COLORADO...

CITY           SKY/WX    TMP DP  RH WIND       PRES   REMARKS
DURANGO        FAIR      15  10  80 NE6       30.19S WCI   6
CORTEZ         FAIR      17  10  74 CALM      30.20S
PAGOSA SPRINGS FAIR      20  13  74 CALM      30.19S
TELLURIDE      FAIR      30   0  27 S3        30.24R
WOLF CREEK PAS FAIR      27 -13  17 SW7       30.30S WCI  19
$$

COZ009-010-012-014-032>034-037-058>063-201400-
...CENTRAL COLORADO...

CITY           SKY/WX    TMP DP  RH WIND       PRES   REMARKS
ASPEN          FAIR      18  10  71 CALM      30.17S
BUENA VISTA    FAIR      29  -1  27 NE6       30.07S WCI  23
COPPER MTN     FAIR      28 -17  13 W9        30.21R WCI  20
BERTHOUD PASS  FAIR      19   9  63 NW39G51   30.14R WCI  -2
COTTONWOOD PAS FAIR      41 -27   5 W24G45    30.07F
GUNNISON       FAIR       9   4  80 E3        30.29R
KREMMLING      FAIR      18  10  73 CALM      30.20R
LEADVILLE      FAIR      27 -14  16 VRB6      30.17S WCI  20
MONARCH PASS   FAIR      23  -9  23 W49G55    30.25S WCI   2
SALIDA         FAIR      44 -11   9 W8        30.13F
SUNLIGHT       FAIR      23  -6  28 SW14G21   30.23S WCI  11
WILKERSON PASS FAIR      28 -17  13 W15G26    30.09S WCI  17
$$

COZ069>075-201400-
...SAN LUIS VALLEY/SANGRE DE CRISTO MOUNTAINS...

CITY           SKY/WX    TMP DP  RH WIND       PRES   REMARKS
ALAMOSA        FAIR       9   5  84 S3        30.17S
DEL NORTE      FAIR      24   2  38 W15       30.17F WCI  12
LA VETA PASS   FAIR      23   3  42 SW36G43     N/A  WCI   4
SAGUACHE       FAIR      23   3  42 NW5       30.17S WCI  17
$$

COZ035-036-038>040-201400-
...NORTHERN COLORADO FRONT RANGE...

CITY           SKY/WX    TMP DP  RH WIND       PRES   REMARKS
DENVER INTL AP MOCLDY    39   5  24 S5        29.85F
DMNS CITY PARK   N/A     37   9  32 SE7       29.86S
AURORA         MOCLDY    49  -5  10 W17       29.85F
FRONT RANGE AP FAIR      45   5  19 SW12      29.87S
ERIE MUNI ARPT FAIR      35   6  29 S6        29.88F WCI  30
BOULDER MUN AP FAIR      43   3  19 SE3       29.82F
CENTENNIAL     MOCLDY    44   2  17 S6        29.89R
BROOMFIELD     MOCLDY    55  -8   7 W15G31    29.86F
FORT COLLINS   FAIR      39   9  29 VRB6      29.82F
LONGMONT       FAIR      57  -5   8 SW10G25   29.82F
$$

COZ041-046-047-076>085-087-088-201400-
...PIKES PEAK/PALMER DIVIDE AND SOUTHERN FOOTHILLS...

CITY           SKY/WX    TMP DP  RH WIND       PRES   REMARKS
COLO. SPRINGS  MOCLDY    40   4  22 W5        29.93S
A. F. ACADEMY  CLOUDY    52 -13   6 SW12G26   29.94R
SCHRIEVER AFB  MOCLDY    41  -6  13 N6        29.93S
CHEYENNE MTN   MOCLDY    49  -8   9 SE3       29.90R
ELLICOTT       NOT AVBL
FALCON         FAIR      37  -7  15 W7        29.95S
FORT CARSON    FAIR      32  10  39 CALM      29.91R
LIMON          FAIR      23  11  60 NW6       29.88F WCI  16
MONUMENT HILL  FAIR      37   1  22 SW13      29.95F
CANON CITY     FAIR      43   3  19 NW6       29.94S
WALSENBURG     NOT AVBL
TRINIDAD       FAIR      34   9  35 W14       29.96S WCI  25
$$

COZ042>045-048>051-090-091-201400-
...NORTHEAST COLORADO...

CITY           SKY/WX    TMP DP  RH WIND       PRES   REMARKS
GREELEY ARPT   FAIR      22  18  85 SW6       29.84F WCI  14
AKRON          FAIR      38   7  27 SW13      29.82S
BURLINGTON     FAIR      31  13  47 SW12      29.84F WCI  22
WRAY           NOT AVBL
YUMA           FAIR      34  12  40 W8        29.81S WCI  27
STERLING       FAIR      23  18  80 S6        29.81F WCI  16
HOLYOKE        FAIR      34  18  51 W12       29.79S WCI  25
FORT MORGAN    FAIR      26  13  58 NW6       29.83S WCI  19
$$

COZ086-089-092>099-201400-
...SOUTHEAST COLORADO...

CITY           SKY/WX    TMP DP  RH WIND       PRES   REMARKS
PUEBLO         FAIR      28  14  55 CALM      29.90S
LA JUNTA       FAIR      28  15  58 W8        29.90S WCI  20
LAMAR          FAIR      26  16  65 W7        29.88S WCI  18
SPRINGFIELD      N/A     35  12  38 NW13      29.90R WCI  26
$$



USA.gov is the U.S. government's official web portal to all federal, state and local government web resources and services.